This demonstration page uses our WeatherBlox Daily Observations layout. Learn more.

Left ArrowRight Arrow

38.80484, -77.04692

Hourly Observations for August 8, 2021

Temp ( °F °C ) Dew Point ( °F °C ) Humidity (%) Winds ( mph kmh ) Pressure ( in mb ) Visibility ( mi km ) Precip ( " mm )
12:13 am 00:13 Mostly Cloudy 72 22.2 64 17.8 76 76 N N/A 30.03 1017 10 16 N/A
12:52 am 00:52 Cloudy 71 21.7 64 17.8 79 79 N N/A 30.03 1017 10 16 N/A
1:52 am 01:52 Mostly Cloudy 71 21.7 64 17.8 79 79 NNW 5 7 30.03 1017 10 16 N/A
2:38 am 02:38 Mostly Cloudy 70 21.1 64 17.8 82 82 NNW 7 11 30.03 1017 10 16 N/A
2:52 am 02:52 Mostly Cloudy 69 20.6 64 17.8 84 84 N 5 7 30.03 1017 10 16 N/A
3:52 am 03:52 Mostly Cloudy 69 20.6 63 17.2 81 81 NW 7 11 30.02 1017 10 16 N/A
4:52 am 04:52 Mostly Cloudy 69 20.6 64 17.8 84 84 NNW 8 13 30.02 1017 10 16 N/A
5:09 am 05:09 Cloudy 69 20.6 64 17.8 84 84 NNW 8 13 30.03 1017 10 16 N/A
5:50 am 05:50 Mostly Clear 70 21 64 18 83 83 NNW 6 9 30.04 1017 10 16 N/A
5:52 am 05:52 Mostly Clear 69 20.6 64 17.8 84 84 NNW 6 9 30.04 1017 10 16 N/A
6:52 am 06:52 Mostly Sunny 69 20.6 63 17.2 81 81 NNW 5 7 30.06 1018 10 16 N/A
7:52 am 07:52 Mostly Sunny 72 22.2 64 17.8 76 76 NW 5 7 30.07 1018 10 16 N/A
8:52 am 08:52 Mostly Sunny 75 23.9 64 17.8 69 69 NNW 7 11 30.07 1018 10 16 N/A
9:52 am 09:52 Partly Cloudy 77 25 64 17.8 64 64 N 6 9 30.09 1019 10 16 N/A
10:52 am 10:52 Partly Cloudy 79 26.1 63 17.2 58 58 VRB 3 6 30.09 1019 10 16 N/A
11:52 am 11:52 Mostly Sunny 83 28.3 64 17.8 53 53 undefined N/A 30.08 1019 10 16 N/A
11:59 am 11:59 Sunny 83 28.3 64 17.8 53 53 NNW 6 9 30.08 1019 10 16 N/A
12:52 pm 12:52 Mostly Sunny 86 30 63 17.2 46 46 NNW 7 11 30.07 1018 10 16 N/A
1:52 pm 13:52 Mostly Sunny 88 31.1 61 16.1 40 40 ENE 6 9 30.06 1018 10 16 N/A
2:52 pm 14:52 Mostly Sunny 90 32.2 59 15 35 35 VRB 5 7 30.05 1018 10 16 N/A
3:52 pm 15:52 Mostly Sunny 91 32.8 59 15 34 34 NNE 7 11 30.04 1017 9 14 N/A
4:52 pm 16:52 Mostly Sunny 90 32.2 61 16.1 38 38 SE 3 6 30.04 1017 10 16 N/A
5:52 pm 17:52 Mostly Sunny 88 31.1 67 19.4 50 50 E 12 19 30.04 1017 10 16 N/A
6:52 pm 18:52 Partly Cloudy 84 28.9 70 21.1 63 63 SE 12 19 30.05 1018 10 16 N/A
7:52 pm 19:52 Mostly Cloudy 82 27.8 69 20.6 65 65 SE 8 13 30.06 1018 10 16 N/A
8:52 pm 20:52 Mostly Cloudy 80 26.7 69 20.6 69 69 SSE 7 11 30.08 1019 10 16 N/A
9:52 pm 21:52 Partly Cloudy 78 25.6 69 20.6 74 74 SSE 7 11 30.08 1019 10 16 N/A
10:52 pm 22:52 Mostly Cloudy 77 25 69 20.6 77 77 S 10 17 30.09 1019 10 16 N/A
11:52 pm 23:52 Mostly Cloudy 76 24.4 70 21.1 82 82 S 9 15 30.10 1019 10 16 N/A

Powered by AerisWeather